Location: Sternwarte_Laufen
(47.9344°N, 12.9346°E)
Time: 12:00:21
(UTC+02:00)

ISS - Pass Details

Date: 14 July 2018
Orbit: 402 x 408 km, 51.6° (Epoch: 21 July)

Event Time Altitude Azimuth Distance (km) Brightness Sun altitude
Exits shadow 01:07:49 16° 86° (E) 1,141 -1.6 -20.3°
Drops below altitude 10° 01:08:43 10° 78° (ENE) 1,470 -0.9 -20.3°
Sets 01:10:55 0° 69° (ENE) 2,335 0.3 -20.3°
